QPF
0.00 0.00 0.00 0.00 0.00 0.00 0.00 0.00 0.00 0.00 0.00 0.00 0.00 0.00 0.00 0.00 0.00 0.00 0.00 0.00 0.00 0.00 0.00 0.00 0.00 0.00 0.00 0.00 0.00 0.00 0.00 0.00 0.00 0.00 0.00 0.00 0.00 0.00 0.00 0.00 0.00 0.00 0.00
0.00 0.00 0.00 0.00 0.00 0.00 0.00 0.00 0.00 0.00 0.00 0.00 0.00 0.00 0.00 0.00 0.00 0.00 0.00 0.00 0.00 0.00 0.00 0.00 0.00 0.00 0.00 0.00 0.00 0.00 0.00 0.00 0.00 0.00 0.00 0.00 0.00 0.00 0.00 0.00 0.00 0.00 0.00
0.00 0.00 0.00 0.00 0.00 0.00 0.00 0.00 0.00 0.00 0.00 0.00 0.00 0.00 0.00 0.00 0.00 0.00 0.00 0.00 0.00 0.00 0.00 0.00 0.00 0.00 0.00 0.00 0.00 0.00 0.00 0.00 0.00 0.00 0.00 0.00 0.00 0.00 0.00 0.00 0.00 0.00 0.00
0.00 0.00 0.00 0.00 0.00 0.00 0.00 0.00 0.00 0.00 0.00 0.00 0.00 0.00 0.00 0.00 0.00 0.00 0.00 0.00 0.00 0.00 0.00 0.00 0.00 0.00 0.00 0.00 0.00 0.00 0.00 0.00 0.00 0.00 0.00 0.00 0.00 0.00 0.00 0.00 0.00 0.00 0.00
0.00 0.00 0.00 0.00 0.00 0.00 0.00 0.00 0.00 0.00 0.00 0.00 0.00 0.00 0.00 0.00 0.00 0.00 0.00 0.00 0.00 0.00 0.00 0.00 0.00 0.00 0.00 0.00 0.00 0.00 0.00 0.00 0.00 0.00 0.00 0.00 0.00 0.00 0.00 0.00 0.00 0.00 0.00
0.00 0.00 0.00 0.00 0.00 0.00 0.00 0.00 0.00 0.00 0.00 0.00 0.00 0.00 0.00 0.00 0.00 0.00 0.00 0.00 0.00 0.00 0.00 0.00 0.00 0.00 0.00 0.00 0.00 0.00 0.00 0.00 0.00 0.00 0.00 0.00 0.00 0.00 0.00 0.00 0.00 0.00 0.00
0.00 0.00 0.00 0.00 0.00 0.00 0.00 0.00 0.00 0.00 0.00 0.00 0.00 0.00 0.00 0.00 0.00 0.00 0.00 0.00 0.00 0.00 0.00 0.00 0.00 0.00 0.00 0.00 0.00 0.00 0.00 0.00 0.00 0.00 0.00 0.00 0.00 0.00 0.00 0.00 0.00 0.00 0.00
0.00 0.00 0.00 0.00 0.00 0.00 0.00 0.00 0.00 0.00 0.00 0.00 0.00 0.00 0.00 0.00 0.00 0.00 0.00 0.00 0.00 0.00 0.00 0.00 0.00 0.00 0.00 0.00 0.00 0.00 0.00 0.00 0.00 0.00 0.00 0.00 0.00 0.00 0.00 0.00 0.00 0.00 0.00
0.00 0.00 0.00 0.00 0.00 0.00 0.00 0.00 0.00 0.00 0.00 0.00 0.00 0.00 0.00 0.00 0.00 0.00 0.00 0.00 0.00 0.00 0.00 0.00 0.00 0.00 0.00 0.00 0.00 0.00 0.00 0.00 0.00 0.00 0.00 0.00 0.00 0.00 0.00 0.00 0.00 0.00 0.00
0.00 0.00 0.00 0.00 0.00 0.00 0.00 0.00 0.00 0.00 0.00 0.00 0.00 0.00 0.00 0.00 0.00 0.00 0.00 0.00 0.00 0.00 0.00 0.00 0.00 0.00 0.00 0.00 0.00 0.00 0.00 0.00 0.00 0.00 0.00 0.00 0.00 0.00 0.00 0.00 0.00 0.00 0.00
0.00 0.00 0.00 0.00 0.00 0.00 0.00 0.00 0.00 0.00 0.00 0.00 0.00 0.00 0.00 0.00 0.00 0.00 0.00 0.00 0.00 0.00 0.00 0.00 0.00 0.00 0.00 0.00 0.00 0.00 0.00 0.00 0.00 0.00 0.00 0.00 0.00 0.00 0.00 0.00 0.00 0.00 0.00
0.00 0.00 0.00 0.00 0.00 0.00 0.00 0.00 0.00 0.00 0.00 0.00 0.00 0.00 0.00 0.00 0.00 0.00 0.00 0.00 0.00 0.00 0.00 0.00 0.00 0.00 0.00 0.00 0.00 0.00 0.00 0.00 0.00 0.00 0.00 0.00 0.00 0.00 0.00 0.00 0.00 0.00 0.00
0.00 0.00 0.00 0.00 0.00 0.00 0.00 0.00 0.00 0.00 0.00 0.00 0.00 0.00 0.00 0.00 0.00 0.00 0.00 0.00 0.00 0.00 0.00 0.00 0.00 0.00 0.00 0.00 0.00 0.00 0.00 0.00 0.00 0.00 0.00 0.00 0.00 0.00 0.00 0.00 0.00 0.00 0.00
0.00 0.00 0.00 0.00 0.00 0.00 0.00 0.00 0.00 0.00 0.00 0.00 0.00 0.00 0.00 0.00 0.00 0.00 0.00 0.00 0.00 0.00 0.00 0.00 0.00 0.00 0.00 0.00 0.00 0.00 0.00 0.00 0.00 0.00 0.00 0.00 0.00 0.00 0.00 0.00 0.00 0.00 0.00
0.00 0.00 0.00 0.00 0.00 0.00 0.00 0.00 0.00 0.00 0.00 0.00 0.00 0.00 0.00 0.00 0.00 0.00 0.00 0.00 0.00 0.00 0.00 0.00 0.00 0.00 0.00 0.00 0.00 0.00 0.00 0.00 0.00 0.00 0.00 0.00 0.00 0.00 0.00 0.00 0.00 0.00 0.00
0.00 0.00 0.00 0.00 0.00 0.00 0.00 0.00 0.00 0.00 0.00 0.00 0.00 0.00 0.00 0.00 0.00 0.00 0.00 0.00 0.00 0.00 0.00 0.00 0.00 0.00 0.00 0.00 0.00 0.00 0.00 0.00 0.00 0.00 0.00 0.00 0.00 0.00 0.00 0.00 0.00 0.00 0.00
0.00 0.00 0.00 0.00 0.00 0.00 0.00 0.00 0.00 0.00 0.00 0.00 0.00 0.00 0.00 0.00 0.00 0.00 0.00 0.00 0.00 0.00 0.00 0.00 0.00 0.00 0.00 0.00 0.00 0.01 0.01 0.01 0.01 0.00 0.00 0.00 0.00 0.00 0.00 0.00 0.00 0.00 0.00
0.00 0.00 0.00 0.00 0.00 0.00 0.00 0.00 0.00 0.00 0.00 0.00 0.00 0.00 0.00 0.00 0.00 0.00 0.00 0.00 0.00 0.00 0.00 0.00 0.00 0.00 0.00 0.00 0.00 0.01 0.02 0.02 0.01 0.01 0.01 0.01 0.00 0.00 0.00 0.00 0.01 0.00 0.00
0.00 0.00 0.00 0.00 0.00 0.00 0.00 0.00 0.00 0.00 0.00 0.00 0.00 0.00 0.00 0.00 0.00 0.00 0.00 0.00 0.00 0.00 0.00 0.00 0.00 0.00 0.00 0.00 0.00 0.01 0.02 0.02 0.02 0.01 0.01 0.01 0.01 0.01 0.01 0.02 0.02 0.01 0.01
0.00 0.00 0.00 0.00 0.00 0.00 0.00 0.00 0.00 0.00 0.00 0.00 0.00 0.00 0.00 0.00 0.00 0.00 0.00 0.00 0.00 0.00 0.00 0.00 0.00 0.00 0.00 0.00 0.00 0.00 0.01 0.02 0.01 0.01 0.01 0.01 0.01 0.01 0.02 0.04 0.04 0.03 0.01
0.00 0.00 0.00 0.00 0.00 0.00 0.00 0.00 0.00 0.00 0.00 0.00 0.00 0.00 0.00 0.00 0.00 0.00 0.00 0.00 0.00 0.00 0.00 0.00 0.00 0.00 0.00 0.00 0.00 0.00 0.01 0.01 0.01 0.01 0.01 0.01 0.01 0.02 0.03 0.05 0.06 0.03 0.02
0.00 0.00 0.00 0.00 0.00 0.00 0.00 0.00 0.00 0.00 0.00 0.00 0.00 0.00 0.00 0.00 0.00 0.00 0.00 0.00 0.00 0.00 0.00 0.00 0.00 0.00 0.00 0.00 0.00 0.00 0.00 0.01 0.01 0.01 0.01 0.01 0.00 0.01 0.03 0.06 0.06 0.04 0.07
0.00 0.00 0.00 0.00 0.00 0.00 0.00 0.00 0.00 0.00 0.00 0.00 0.00 0.00 0.00 0.00 0.00 0.00 0.00 0.00 0.00 0.00 0.00 0.00 0.00 0.00 0.00 0.00 0.00 0.00 0.00 0.01 0.02 0.02 0.01 0.02 0.02 0.02 0.04 0.06 0.07 0.11 0.16
0.00 0.00 0.00 0.00 0.00 0.00 0.00 0.00 0.00 0.00 0.00 0.00 0.00 0.00 0.00 0.00 0.00 0.00 0.00 0.00 0.00 0.01 0.01 0.00 0.00 0.00 0.00 0.00 0.00 0.00 0.00 0.01 0.02 0.03 0.03 0.04 0.04 0.05 0.06 0.07 0.10 0.17 0.16
0.00 0.00 0.00 0.00 0.00 0.00 0.00 0.00 0.00 0.00 0.00 0.00 0.00 0.00 0.00 0.00 0.00 0.00 0.00 0.00 0.00 0.01 0.02 0.02 0.02 0.02 0.02 0.01 0.01 0.02 0.03 0.03 0.04 0.06 0.08 0.07 0.07 0.08 0.10 0.10 0.11 0.15 0.16
0.00 0.00 0.00 0.00 0.00 0.00 0.00 0.00 0.00 0.00 0.00 0.00 0.00 0.00 0.00 0.00 0.00 0.00 0.00 0.00 0.01 0.01 0.02 0.04 0.05 0.05 0.04 0.04 0.04 0.04 0.04 0.05 0.07 0.13 0.12 0.06 0.05 0.05 0.06 0.08 0.09 0.12 0.13
MSLP
1013.72 1014.17 1014.47 1014.58 1014.48 1014.21 1013.84 1013.43 1013.07 1012.81 1012.69 1012.70 1012.84 1013.07 1013.34 1013.63 1013.93 1014.22 1014.53 1014.86 1015.25 1015.70 1016.21 1016.77 1017.35 1017.93 1018.49 1018.99 1019.44 1019.85 1020.22 1020.58 1020.94 1021.32 1021.70 1022.08 1022.44 1022.76 1023.01 1023.18 1023.27 1023.29 1023.25
1014.99 1015.56 1015.92 1016.02 1015.88 1015.53 1015.05 1014.54 1014.08 1013.73 1013.53 1013.48 1013.55 1013.70 1013.90 1014.10 1014.30 1014.50 1014.71 1014.97 1015.29 1015.70 1016.18 1016.72 1017.29 1017.86 1018.38 1018.84 1019.24 1019.58 1019.88 1020.18 1020.49 1020.83 1021.22 1021.63 1022.04 1022.43 1022.78 1023.05 1023.23 1023.34 1023.38
1016.26 1016.93 1017.34 1017.45 1017.27 1016.87 1016.32 1015.74 1015.21 1014.80 1014.54 1014.43 1014.44 1014.52 1014.63 1014.74 1014.84 1014.93 1015.05 1015.21 1015.45 1015.79 1016.22 1016.71 1017.24 1017.76 1018.23 1018.63 1018.95 1019.21 1019.43 1019.64 1019.89 1020.18 1020.55 1020.96 1021.41 1021.87 1022.30 1022.67 1022.96 1023.16 1023.29
1017.42 1018.16 1018.62 1018.74 1018.55 1018.12 1017.54 1016.92 1016.35 1015.91 1015.62 1015.48 1015.44 1015.46 1015.49 1015.51 1015.50 1015.49 1015.49 1015.54 1015.69 1015.93 1016.28 1016.70 1017.16 1017.61 1018.01 1018.33 1018.57 1018.74 1018.87 1019.01 1019.18 1019.42 1019.74 1020.14 1020.60 1021.10 1021.58 1022.03 1022.41 1022.71 1022.93
1018.39 1019.18 1019.66 1019.80 1019.63 1019.20 1018.63 1018.02 1017.46 1017.02 1016.73 1016.56 1016.49 1016.45 1016.42 1016.35 1016.24 1016.11 1016.00 1015.94 1015.97 1016.10 1016.35 1016.67 1017.04 1017.40 1017.72 1017.96 1018.13 1018.22 1018.27 1018.33 1018.43 1018.60 1018.87 1019.23 1019.68 1020.17 1020.68 1021.17 1021.61 1021.99 1022.30
1019.13 1019.94 1020.44 1020.60 1020.45 1020.07 1019.55 1018.99 1018.48 1018.08 1017.80 1017.64 1017.54 1017.47 1017.37 1017.22 1017.01 1016.78 1016.55 1016.37 1016.28 1016.29 1016.41 1016.63 1016.89 1017.16 1017.39 1017.56 1017.66 1017.69 1017.68 1017.68 1017.71 1017.82 1018.02 1018.32 1018.71 1019.16 1019.65 1020.14 1020.61 1021.04 1021.42
1019.66 1020.45 1020.94 1021.13 1021.03 1020.71 1020.28 1019.80 1019.38 1019.05 1018.82 1018.67 1018.57 1018.47 1018.31 1018.09 1017.80 1017.47 1017.13 1016.84 1016.62 1016.51 1016.51 1016.60 1016.75 1016.92 1017.07 1017.17 1017.21 1017.20 1017.16 1017.11 1017.09 1017.14 1017.26 1017.48 1017.78 1018.16 1018.58 1019.03 1019.49 1019.93 1020.36
1019.99 1020.73 1021.21 1021.42 1021.38 1021.15 1020.82 1020.47 1020.15 1019.91 1019.74 1019.64 1019.54 1019.42 1019.23 1018.95 1018.59 1018.17 1017.74 1017.34 1017.01 1016.78 1016.65 1016.63 1016.66 1016.73 1016.81 1016.85 1016.85 1016.81 1016.74 1016.67 1016.61 1016.60 1016.65 1016.77 1016.96 1017.22 1017.55 1017.92 1018.33 1018.75 1019.20
1020.16 1020.83 1021.29 1021.51 1021.54 1021.41 1021.21 1020.98 1020.79 1020.65 1020.56 1020.50 1020.42 1020.29 1020.07 1019.76 1019.35 1018.87 1018.37 1017.89 1017.47 1017.13 1016.89 1016.75 1016.67 1016.65 1016.64 1016.63 1016.60 1016.54 1016.46 1016.36 1016.28 1016.21 1016.19 1016.21 1016.29 1016.42 1016.63 1016.89 1017.22 1017.60 1018.04
1020.22 1020.81 1021.23 1021.47 1021.56 1021.53 1021.45 1021.36 1021.29 1021.25 1021.24 1021.22 1021.17 1021.04 1020.81 1020.47 1020.04 1019.53 1018.99 1018.46 1017.97 1017.55 1017.22 1016.97 1016.80 1016.68 1016.59 1016.52 1016.45 1016.37 1016.28 1016.17 1016.06 1015.95 1015.86 1015.79 1015.76 1015.77 1015.85 1016.00 1016.23 1016.55 1016.95
1020.21 1020.72 1021.09 1021.34 1021.47 1021.54 1021.57 1021.59 1021.63 1021.69 1021.74 1021.76 1021.72 1021.60 1021.38 1021.04 1020.61 1020.10 1019.56 1019.01 1018.48 1018.01 1017.61 1017.27 1017.01 1016.80 1016.63 1016.49 1016.38 1016.26 1016.15 1016.03 1015.90 1015.76 1015.61 1015.47 1015.34 1015.25 1015.22 1015.26 1015.40 1015.64 1015.99
1020.17 1020.58 1020.91 1021.14 1021.31 1021.45 1021.56 1021.68 1021.80 1021.92 1022.01 1022.07 1022.05 1021.93 1021.72 1021.40 1020.99 1020.51 1019.99 1019.46 1018.93 1018.44 1017.99 1017.59 1017.25 1016.95 1016.69 1016.48 1016.30 1016.14 1015.99 1015.85 1015.69 1015.53 1015.35 1015.16 1014.97 1014.80 1014.68 1014.64 1014.69 1014.85 1015.14
1020.10 1020.43 1020.70 1020.91 1021.09 1021.26 1021.43 1021.61 1021.78 1021.94 1022.06 1022.13 1022.11 1022.01 1021.81 1021.51 1021.14 1020.72 1020.25 1019.76 1019.26 1018.77 1018.30 1017.85 1017.43 1017.05 1016.70 1016.40 1016.14 1015.92 1015.72 1015.54 1015.37 1015.18 1014.98 1014.76 1014.54 1014.33 1014.16 1014.06 1014.05 1014.15 1014.37
1020.02 1020.27 1020.47 1020.65 1020.83 1021.01 1021.21 1021.41 1021.60 1021.77 1021.90 1021.95 1021.93 1021.83 1021.64 1021.39 1021.07 1020.70 1020.29 1019.86 1019.41 1018.94 1018.46 1017.97 1017.49 1017.02 1016.59 1016.19 1015.84 1015.53 1015.27 1015.05 1014.84 1014.63 1014.42 1014.20 1013.98 1013.76 1013.57 1013.44 1013.39 1013.44 1013.60
1019.93 1020.09 1020.24 1020.37 1020.53 1020.71 1020.91 1021.12 1021.31 1021.47 1021.58 1021.62 1021.58 1021.47 1021.29 1021.06 1020.79 1020.48 1020.14 1019.77 1019.36 1018.92 1018.43 1017.92 1017.38 1016.83 1016.30 1015.80 1015.34 1014.94 1014.60 1014.32 1014.07 1013.85 1013.63 1013.42 1013.21 1013.00 1012.82 1012.69 1012.62 1012.63 1012.74
1019.84 1019.93 1020.01 1020.11 1020.24 1020.41 1020.60 1020.81 1020.99 1021.13 1021.21 1021.22 1021.16 1021.04 1020.86 1020.65 1020.41 1020.14 1019.85 1019.52 1019.15 1018.72 1018.23 1017.68 1017.08 1016.46 1015.83 1015.22 1014.66 1014.16 1013.73 1013.37 1013.07 1012.82 1012.59 1012.39 1012.19 1012.01 1011.86 1011.74 1011.67 1011.66 1011.73
1019.74 1019.77 1019.81 1019.88 1020.00 1020.17 1020.36 1020.56 1020.73 1020.85 1020.91 1020.89 1020.81 1020.66 1020.48 1020.26 1020.02 1019.77 1019.50 1019.19 1018.83 1018.40 1017.89 1017.29 1016.64 1015.93 1015.21 1014.49 1013.83 1013.22 1012.70 1012.26 1011.90 1011.60 1011.35 1011.14 1010.95 1010.79 1010.65 1010.55 1010.49 1010.49 1010.53
1019.64 1019.63 1019.65 1019.73 1019.86 1020.04 1020.25 1020.45 1020.63 1020.75 1020.79 1020.75 1020.64 1020.46 1020.25 1020.01 1019.75 1019.48 1019.19 1018.85 1018.47 1018.00 1017.45 1016.81 1016.08 1015.30 1014.49 1013.68 1012.91 1012.21 1011.59 1011.06 1010.62 1010.26 1009.97 1009.73 1009.53 1009.37 1009.24 1009.15 1009.10 1009.10 1009.14
1019.54 1019.54 1019.58 1019.69 1019.85 1020.08 1020.32 1020.56 1020.75 1020.87 1020.91 1020.85 1020.71 1020.50 1020.24 1019.95 1019.64 1019.31 1018.96 1018.57 1018.12 1017.60 1016.98 1016.27 1015.48 1014.62 1013.74 1012.85 1011.99 1011.20 1010.49 1009.87 1009.35 1008.91 1008.55 1008.25 1008.01 1007.83 1007.69 1007.59 1007.55 1007.55 1007.61
1019.47 1019.51 1019.61 1019.77 1020.01 1020.29 1020.59 1020.87 1021.09 1021.22 1021.26 1021.18 1021.01 1020.75 1020.43 1020.07 1019.68 1019.27 1018.83 1018.34 1017.81 1017.19 1016.49 1015.71 1014.85 1013.93 1012.98 1012.03 1011.11 1010.24 1009.45 1008.75 1008.13 1007.61 1007.17 1006.79 1006.49 1006.25 1006.07 1005.96 1005.91 1005.93 1006.00
1019.45 1019.56 1019.75 1020.00 1020.32 1020.68 1021.03 1021.35 1021.60 1021.74 1021.76 1021.66 1021.44 1021.13 1020.74 1020.29 1019.80 1019.28 1018.72 1018.12 1017.47 1016.76 1015.97 1015.11 1014.18 1013.21 1012.21 1011.22 1010.25 1009.34 1008.49 1007.71 1007.02 1006.40 1005.87 1005.41 1005.02 1004.71 1004.49 1004.34 1004.28 1004.30 1004.41
1019.51 1019.73 1020.01 1020.37 1020.76 1021.18 1021.58 1021.93 1022.17 1022.30 1022.30 1022.16 1021.88 1021.50 1021.02 1020.47 1019.87 1019.23 1018.55 1017.83 1017.06 1016.24 1015.36 1014.43 1013.45 1012.43 1011.41 1010.39 1009.40 1008.45 1007.56 1006.73 1005.97 1005.28 1004.66 1004.11 1003.64 1003.26 1002.97 1002.79 1002.72 1002.76 1002.90
1019.69 1020.02 1020.41 1020.84 1021.29 1021.74 1022.15 1022.49 1022.71 1022.79 1022.73 1022.53 1022.18 1021.71 1021.14 1020.49 1019.78 1019.02 1018.22 1017.38 1016.49 1015.57 1014.61 1013.61 1012.58 1011.54 1010.50 1009.48 1008.48 1007.52 1006.61 1005.75 1004.94 1004.19 1003.50 1002.88 1002.34 1001.89 1001.56 1001.35 1001.27 1001.33 1001.52
1020.02 1020.45 1020.91 1021.39 1021.86 1022.30 1022.67 1022.94 1023.09 1023.09 1022.94 1022.65 1022.22 1021.66 1021.00 1020.25 1019.44 1018.57 1017.66 1016.71 1015.73 1014.71 1013.67 1012.61 1011.55 1010.49 1009.44 1008.42 1007.43 1006.48 1005.57 1004.69 1003.86 1003.07 1002.33 1001.66 1001.08 1000.59 1000.23 1000.00 999.93 1000.02 1000.27
1020.52 1021.01 1021.51 1021.98 1022.41 1022.78 1023.05 1023.21 1023.24 1023.13 1022.87 1022.47 1021.94 1021.29 1020.55 1019.72 1018.82 1017.87 1016.87 1015.83 1014.76 1013.67 1012.57 1011.45 1010.35 1009.27 1008.22 1007.20 1006.22 1005.27 1004.37 1003.49 1002.65 1001.85 1001.10 1000.42 999.81 999.31 998.95 998.74 998.70 998.84 999.14
1021.17 1021.68 1022.15 1022.56 1022.89 1023.13 1023.26 1023.27 1023.15 1022.89 1022.51 1022.00 1021.37 1020.65 1019.84 1018.95 1017.99 1016.98 1015.91 1014.81 1013.68 1012.52 1011.35 1010.19 1009.05 1007.94 1006.87 1005.84 1004.86 1003.92 1003.02 1002.16 1001.33 1000.54 999.79 999.12 998.53 998.05 997.72 997.56 997.56 997.76 998.13
Thickness
5660 5657 5653 5651 5653 5656 5660 5663 5666 5668 5670 5668 5666 5663 5660 5658 5656 5654 5651 5649 5646 5641 5636 5633 5630 5628 5625 5622 5619 5617 5614 5610 5608 5601 5596 5598 5600 5601 5602 5602 5601 5601 5601
5644 5640 5636 5634 5635 5637 5641 5644 5647 5650 5653 5654 5654 5651 5648 5646 5645 5642 5640 5637 5634 5631 5627 5623 5620 5617 5614 5611 5610 5610 5606 5604 5603 5596 5585 5582 5584 5589 5593 5592 5591 5592 5592
5623 5618 5616 5614 5616 5618 5621 5624 5626 5630 5633 5636 5638 5637 5634 5631 5629 5627 5626 5623 5621 5618 5616 5613 5610 5607 5605 5602 5601 5602 5602 5599 5597 5598 5591 5581 5580 5579 5581 5583 5583 5583 5582
5604 5599 5597 5596 5597 5598 5601 5604 5606 5608 5611 5614 5615 5615 5614 5612 5612 5612 5612 5610 5608 5605 5603 5601 5599 5596 5594 5592 5591 5591 5592 5593 5590 5589 5591 5590 5588 5577 5570 5571 5574 5574 5574
5581 5578 5577 5576 5577 5579 5582 5584 5586 5587 5588 5590 5591 5592 5592 5593 5594 5594 5595 5595 5594 5592 5589 5588 5587 5585 5584 5582 5580 5579 5580 5581 5582 5582 5581 5578 5578 5580 5569 5562 5562 5563 5566
5560 5557 5556 5555 5556 5560 5562 5564 5565 5565 5565 5566 5567 5568 5568 5571 5572 5573 5574 5576 5577 5576 5575 5574 5572 5572 5571 5571 5569 5569 5568 5568 5570 5571 5573 5573 5569 5569 5569 5561 5555 5554 5556
5541 5538 5536 5535 5535 5537 5540 5543 5543 5542 5541 5542 5543 5543 5545 5547 5549 5550 5552 5554 5556 5558 5559 5559 5558 5557 5557 5557 5557 5557 5557 5557 5557 5559 5561 5564 5567 5567 5566 5560 5551 5548 5547
5525 5522 5519 5517 5516 5517 5517 5518 5519 5518 5518 5517 5518 5519 5520 5522 5523 5525 5527 5530 5532 5535 5539 5541 5541 5541 5541 5542 5542 5542 5543 5544 5544 5545 5547 5550 5554 5555 5556 5553 5545 5537 5533
5510 5507 5503 5500 5498 5496 5495 5494 5492 5491 5492 5492 5493 5495 5495 5497 5499 5500 5502 5504 5507 5511 5514 5518 5521 5522 5523 5523 5524 5525 5526 5528 5529 5530 5531 5534 5538 5541 5543 5543 5542 5538 5526
5494 5490 5485 5482 5478 5476 5474 5472 5469 5466 5466 5466 5467 5469 5469 5471 5474 5476 5478 5479 5482 5486 5489 5492 5496 5500 5502 5503 5504 5506 5508 5510 5512 5514 5515 5518 5520 5523 5527 5529 5530 5531 5532
5476 5471 5467 5463 5460 5456 5453 5450 5447 5444 5442 5442 5443 5444 5445 5447 5449 5451 5453 5455 5458 5462 5465 5467 5471 5475 5479 5481 5483 5485 5487 5491 5494 5496 5499 5503 5503 5506 5509 5512 5514 5515 5516
5458 5453 5448 5444 5440 5436 5433 5430 5427 5424 5422 5421 5420 5420 5422 5423 5424 5426 5427 5430 5434 5438 5441 5444 5447 5451 5454 5458 5461 5463 5466 5469 5474 5477 5481 5486 5486 5490 5492 5494 5498 5499 5500
5440 5434 5430 5425 5421 5416 5413 5411 5408 5404 5402 5400 5398 5397 5398 5398 5399 5400 5402 5405 5408 5412 5416 5419 5423 5427 5430 5434 5438 5442 5445 5449 5453 5457 5463 5468 5468 5474 5476 5478 5482 5484 5482
5423 5417 5411 5406 5401 5396 5392 5388 5385 5382 5379 5376 5374 5372 5372 5373 5374 5375 5377 5379 5382 5386 5390 5394 5398 5402 5406 5411 5415 5419 5424 5429 5434 5438 5444 5449 5453 5458 5459 5462 5466 5466 5464
5404 5398 5390 5384 5378 5374 5369 5365 5361 5357 5354 5351 5348 5346 5346 5347 5348 5349 5351 5353 5356 5359 5364 5368 5373 5378 5382 5387 5391 5396 5402 5407 5414 5420 5425 5431 5435 5441 5443 5447 5450 5449 5450
5378 5373 5366 5359 5353 5349 5345 5341 5337 5333 5328 5324 5321 5320 5319 5320 5321 5323 5325 5327 5330 5332 5336 5341 5345 5352 5358 5363 5368 5373 5378 5385 5392 5400 5406 5412 5417 5423 5427 5432 5436 5437 5438
5354 5347 5341 5335 5328 5322 5318 5314 5312 5308 5303 5299 5297 5295 5293 5294 5295 5296 5298 5299 5301 5304 5308 5313 5317 5324 5333 5338 5343 5348 5352 5360 5369 5378 5385 5392 5400 5404 5408 5413 5418 5424 5430
5332 5326 5320 5315 5309 5303 5297 5293 5288 5282 5277 5274 5272 5271 5270 5270 5270 5269 5270 5271 5270 5273 5278 5284 5289 5295 5307 5312 5315 5319 5323 5333 5345 5355 5363 5371 5381 5386 5389 5392 5398 5408 5417
5315 5309 5304 5298 5292 5284 5278 5272 5267 5261 5257 5254 5252 5250 5246 5244 5244 5243 5244 5244 5242 5245 5248 5252 5258 5264 5277 5285 5286 5288 5291 5302 5318 5330 5340 5348 5359 5370 5369 5371 5381 5390 5401
5300 5295 5290 5282 5272 5264 5259 5253 5248 5242 5238 5234 5231 5226 5221 5216 5214 5214 5214 5214 5212 5216 5220 5226 5232 5234 5244 5256 5258 5259 5259 5272 5289 5304 5315 5326 5337 5347 5347 5351 5361 5373 5387
5287 5280 5273 5263 5253 5246 5239 5233 5228 5222 5217 5211 5206 5200 5194 5187 5184 5183 5183 5181 5182 5185 5190 5195 5204 5208 5215 5226 5232 5235 5233 5244 5258 5273 5288 5303 5314 5323 5329 5333 5342 5359 5364
5269 5261 5253 5244 5235 5226 5218 5213 5206 5200 5193 5186 5180 5174 5168 5162 5159 5156 5156 5154 5153 5156 5162 5167 5178 5185 5191 5198 5207 5212 5215 5223 5232 5250 5266 5279 5289 5297 5306 5313 5326 5337 5338
5248 5239 5229 5222 5214 5204 5196 5189 5184 5176 5170 5162 5156 5151 5147 5142 5137 5134 5134 5133 5132 5133 5139 5143 5152 5162 5166 5170 5176 5183 5190 5200 5210 5229 5246 5257 5265 5272 5282 5294 5306 5311 5316
5228 5218 5209 5202 5195 5186 5178 5169 5162 5156 5148 5142 5138 5134 5131 5128 5124 5119 5118 5118 5117 5118 5120 5123 5129 5137 5142 5144 5147 5153 5160 5171 5184 5201 5219 5233 5244 5252 5263 5274 5285 5292 5300
5208 5199 5190 5183 5178 5171 5163 5153 5145 5138 5132 5128 5124 5121 5118 5116 5114 5112 5108 5108 5108 5105 5109 5114 5118 5124 5132 5131 5133 5138 5144 5150 5159 5171 5185 5202 5218 5230 5244 5257 5268 5277 5282
5188 5179 5173 5167 5161 5155 5148 5140 5132 5125 5119 5118 5115 5111 5109 5108 5107 5107 5107 5103 5103 5105 5105 5108 5111 5117 5120 5125 5127 5132 5137 5142 5147 5153 5169 5185 5199 5213 5226 5238 5249 5259 5266